Regional Weather Roundup
Issued by NWS

Home | Current Version | Previous Version | Graphics & Text | Print | Product List | Glossary On
Versions: 1 2 3 4 5 6 7 8 9 10 11 12 13 14 15 16 17 18 19 20 21 22 23 24 25 26 27 28 29 30 31 32 33 34 35 36 37 38 39 40 41 42 43 44 45 46 47 48 49 50
000
ASUS43 KLMK 271402
RWRKY
KENTUCKY REGIONAL WEATHER ROUNDUP
NATIONAL WEATHER SERVICE LOUISVILLE KY
1000 AM EDT WED MAY 27 2015

NOTE "FAIR" INDICATES FEW OR NO CLOUDS BELOW 12,000 FEET
WITH NO SIGNIFICANT WEATHER AND/OR OBSTRUCTIONS TO VISIBILITY.

KYZ001>023-026-027-061>063-070>075-271500-
WESTERN AND SOUTH CENTRAL KENTUCKY

CITY           SKY/WX    TMP DP  RH WIND       PRES   REMARKS
PADUCAH        MOSUNNY   76  69  79 SW7       30.10R
HENDERSON      SUNNY     73  64  73 SW8       30.09F
OWENSBORO      MOSUNNY   75  68  79 S9        30.12F
HOPKINSVILLE   MOSUNNY   74  69  81 S9        30.14S
BOWLING GREEN  CLOUDY    75  68  78 S10       30.17S
GLASGOW        NOT AVBL
$$

KYZ024-025-028>034-038-045-046-053-271500-
NORTH CENTRAL KENTUCKY

CITY           SKY/WX    TMP DP  RH WIND       PRES   REMARKS
LOUISVILLE/SDF PTSUNNY   74  66  76 S9        30.14S
LOUISVILLE/LOU PTSUNNY   73  66  78 S7        30.15S
FORT KNOX      MOSUNNY   73  67  83 S10       30.14S
$$

KYZ035>037-039>044-047>052-055>060-089>105-271500-
NORTHEAST KENTUCKY

CITY           SKY/WX    TMP DP  RH WIND       PRES   REMARKS
LEXINGTON      CLOUDY    72  66  81 SW12      30.19R
COVINGTON      PTSUNNY   73  64  73 SW12G18   30.14R
FRANKFORT      CLOUDY    72  66  81 SW14      30.17R
$$

KYZ054-064>069-076>088-106>120-271500-
SOUTHEAST KENTUCKY

CITY           SKY/WX    TMP DP  RH WIND       PRES   REMARKS
JACKSON        CLOUDY    69  65  86 VRB3      30.23R
LONDON         CLOUDY    72  62  71 SW7       30.23R
SOMERSET       NOT AVBL
MIDDLESBORO    CLOUDY    71  63  76 S7        30.25R
MONTICELLO     CLOUDY    71  67  87 SW8       30.25R
$$



USA.gov is the U.S. government's official web portal to all federal, state and local government web resources and services.